This is the latest recevied weather packets stored in our database for station/object KI4MRC. If no packets are shown the sender has not sent any weather packets the latest 10 day(s).
| Time | Temp. | Humidity | Pressure | Rain* | Wind** | Luminosity | Snow |
|---|---|---|---|---|---|---|---|
| 1778007466 | 28.89° C | 69% | 1014.7 hPa | 0 mm | - | 800 W/m² | - |
| 1778007162 | 28.33° C | 70% | 1014.5 hPa | 0 mm | - | 891 W/m² | - |
| 1778006858 | 28.33° C | 70% | 1014.6 hPa | 0 mm | - | 397 W/m² | - |
| 1778006556 | 28.33° C | 69% | 1014.8 hPa | 0 mm | - | 287 W/m² | - |
| 1778006253 | 28.89° C | 70% | 1014.7 hPa | 0 mm | - | 281 W/m² | - |
| 1778005950 | 28.89° C | 70% | 1014.6 hPa | 0 mm | - | 300 W/m² | - |
| 1778005646 | 29.44° C | 69% | 1014.7 hPa | 0 mm | - | 273 W/m² | - |
| 1778005343 | 28.89° C | 69% | 1014.8 hPa | 0 mm | - | 946 W/m² | - |
| 1778005039 | 29.44° C | 71% | 1014.6 hPa | 0 mm | - | 954 W/m² | - |
| 1778004737 | 29.44° C | 68% | 1014.7 hPa | 0 mm | - | 1038 W/m² | - |
| 1778004434 | 29.44° C | 68% | 1014.7 hPa | 0 mm | - | 1076 W/m² | - |
| 1778004130 | 28.89° C | 70% | 1014.8 hPa | 0 mm | - | 1028 W/m² | - |
| 1778003826 | 28.89° C | 70% | 1014.9 hPa | 0 mm | - | 1040 W/m² | - |
| 1778003523 | 29.44° C | 70% | 1014.9 hPa | 0 mm | - | 1141 W/m² | - |
| 1778003220 | 28.89° C | 72% | 1015 hPa | 0 mm | - | 1121 W/m² | - |
| 1778002915 | 28.89° C | 70% | 1015 hPa | 0 mm | - | 1181 W/m² | - |
| 1778002613 | 28.33° C | 72% | 1015.1 hPa | 0 mm | - | 540 W/m² | - |
| 1778002310 | 28.33° C | 70% | 1015 hPa | 0 mm | - | 926 W/m² | - |
| 1778002008 | 28.33° C | 72% | 1014.8 hPa | 0 mm | - | 1045 W/m² | - |
| 1778001704 | 27.78° C | 73% | 1014.9 hPa | 0 mm | - | 621 W/m² | - |
| 1778001404 | 27.78° C | 74% | 1015.1 hPa | 0 mm | - | 1114 W/m² | - |
| 1778001101 | 27.78° C | 73% | 1015.2 hPa | 0 mm | - | 228 W/m² | - |
| 1778000798 | 27.78° C | 72% | 1015.2 hPa | 0 mm | - | 234 W/m² | - |
| 1778000494 | 28.33° C | 74% | 1015.3 hPa | 0 mm | - | 220 W/m² | - |
| 1778000189 | 28.89° C | 70% | 1015.1 hPa | 0 mm | - | 257 W/m² | - |
* Rain latest hour (hover to see other rain measurements)
** Current wind speed in m/s (hover to see current wind gust speed)